Regional Weather Roundup
Issued by NWS

Home | Current Version | Previous Version | Text Only | Print | Product List | Glossary On
Versions: 1 2 3 4 5 6 7 8 9 10 11 12 13 14 15 16 17 18 19 20 21 22 23 24 25 26 27 28 29 30 31 32 33 34 35 36 37 38 39 40 41 42 43 44 45 46 47 48 49 50
000
ASUS44 KJAN 042303
RWRMS

MISSISSIPPI HOURLY WEATHER ROUNDUP
NATIONAL WEATHER SERVICE JACKSON MS
600 PM CDT SAT JUL 04 2015

NOTE: "FAIR: INDICATES FEW OR NO CLOUDS BELOW 12,000 FEET WITH NO
SIGNIFICANT WEATHER AND/OR OBSTRUCTIONS TO VISIBILITY.

MSZ001>002-007>008-010>013-018>021-025>028-034>036-050000-
NORTHWEST MISSISSIPPI

CITY           SKY/WX    TMP DP  RH WIND       PRES   REMARKS
CLARKSDALE     PTSUNNY   81  72  74 SW6       29.99R
CLEVELAND      CLOUDY    76  72  88 SW7       30.00S
GREENWOOD      CLOUDY    78  68  71 SW8       30.01F
GREENVILLE     PTSUNNY   78  68  71 S5        30.01S
TUNICA         CLOUDY    79  68  69 SW5       29.99R
$$

MSZ003>006-009-014>017-022>024-029>033-037>039-050000-
NORTHEAST MISSISSIPPI

CITY           SKY/WX    TMP DP  RH WIND       PRES   REMARKS
COLUMBUS AFB   CLOUDY    78  71  79 SW8       29.99S
CORINTH        FAIR      75  70  83 S3        29.99R
GOLDN TRIANGLE PTSUNNY   79  70  73 SW9       29.99S
STARKVILLE     FAIR      77  72  83 SW3       30.00S
TUPELO         CLOUDY    75  70  84 CALM      30.00R
$$

MSZ040-058-050000-
CENTRAL MISSISSIPPI

CITY           SKY/WX    TMP DP  RH WIND       PRES   REMARKS
JACKSON INTL   PTSUNNY   78  69  73 SW5       30.01F
JACKSON HAWKNS PTSUNNY   78  69  73 S8        30.01F
MERIDIAN KEY   CLOUDY    72  70  93 W5        30.03F
MERIDIAN NAS   CLOUDY    73  70  90 VRB3      30.02F
VICKSBURG      PTSUNNY   79  70  74 VRB5      30.02R
$$

MSZ059>079-050000-
SOUTH MISSISSIPPI

CITY           SKY/WX    TMP DP  RH WIND       PRES   REMARKS
BROOKHAVEN       N/A     75  73  94 W7        30.06F
HATTIESBURG    LGT RAIN  75  72  90 W3        30.07F
MCCOMB         LGT RAIN  71  71 100 S5        30.04F
NATCHEZ        CLOUDY    73  70  88 S5        30.05S
PINE BELT      CLOUDY    72  70  94 SW5       30.07F
$$

MSZ080>082-050000-
COASTAL MISSISSIPPI

CITY           SKY/WX    TMP DP  RH WIND       PRES   REMARKS
BAY ST LOUIS   MOSUNNY  N/A N/A N/A MISG      30.06R
BILOXI         CLOUDY    75  73  94 E6        30.08R
PASCAGOULA     HVY RAIN  73  69  87 NW12G30   30.10R FOG
GULFPORT       CLOUDY    81  69  67 N10       30.06R
$$


USA.gov is the U.S. government's official web portal to all federal, state and local government web resources and services.